TimeMST,TemperatureF,Dew PointF,Humidity,Sea Level PressureIn,VisibilityMPH,Wind Direction,Wind SpeedMPH,Gust SpeedMPH,PrecipitationIn,Events,Conditions,WindDirDegrees,DateUTC
12:57 AM,37.0,26.1,65,30.13,10.0,Calm,Calm,-,N/A,,Overcast,0,2012-11-16 07:57:00
1:57 AM,37.0,25.0,62,30.12,10.0,Calm,Calm,-,N/A,,Overcast,0,2012-11-16 08:57:00
2:57 AM,36.0,25.0,64,30.12,10.0,Calm,Calm,-,N/A,,Overcast,0,2012-11-16 09:57:00
3:57 AM,35.1,26.1,70,30.12,10.0,Calm,Calm,-,N/A,,Overcast,0,2012-11-16 10:57:00
4:57 AM,33.1,24.1,70,30.13,10.0,Calm,Calm,-,N/A,,Mostly Cloudy,0,2012-11-16 11:57:00
5:57 AM,35.1,27.0,72,30.15,10.0,Calm,Calm,-,N/A,,Overcast,0,2012-11-16 12:57:00
6:57 AM,35.1,27.0,72,30.17,10.0,Calm,Calm,-,N/A,,Overcast,0,2012-11-16 13:57:00
7:57 AM,37.0,28.0,70,30.19,10.0,Calm,Calm,-,N/A,,Overcast,0,2012-11-16 14:57:00
8:57 AM,46.9,28.9,50,30.15,10.0,Calm,Calm,-,N/A,,Partly Cloudy,0,2012-11-16 15:57:00
9:57 AM,52.0,21.0,30,30.14,10.0,SSW,12.7,17.3,N/A,,Clear,210,2012-11-16 16:57:00
10:57 AM,54.0,18.0,24,30.13,10.0,SW,13.8,-,N/A,,Scattered Clouds,220,2012-11-16 17:57:00
11:57 AM,55.0,17.1,23,30.10,10.0,SSW,17.3,23.0,N/A,,Mostly Cloudy,210,2012-11-16 18:57:00
12:57 PM,55.9,17.1,22,30.07,10.0,South,13.8,19.6,N/A,,Clear,190,2012-11-16 19:57:00
1:57 PM,55.9,19.0,24,30.06,10.0,SSW,12.7,-,N/A,,Clear,210,2012-11-16 20:57:00
2:57 PM,57.0,19.9,24,30.05,10.0,SW,10.4,23.0,N/A,,Clear,230,2012-11-16 21:57:00
3:57 PM,55.0,19.0,24,30.07,10.0,WSW,13.8,-,N/A,,Clear,240,2012-11-16 22:57:00
4:57 PM,52.0,18.0,26,30.09,10.0,SW,8.1,-,N/A,,Clear,230,2012-11-16 23:57:00
5:57 PM,44.1,19.9,38,30.12,10.0,Calm,Calm,-,N/A,,Clear,0,2012-11-17 00:57:00
6:57 PM,37.9,21.0,51,30.16,10.0,Calm,Calm,-,N/A,,Clear,0,2012-11-17 01:57:00
7:57 PM,37.0,21.0,52,30.17,10.0,SW,4.6,-,N/A,,Clear,220,2012-11-17 02:57:00
8:57 PM,35.1,19.9,54,30.14,10.0,Calm,Calm,-,N/A,,Clear,0,2012-11-17 03:57:00
9:57 PM,35.1,19.9,54,30.12,10.0,WSW,4.6,-,N/A,,Clear,240,2012-11-17 04:57:00
10:57 PM,37.0,19.9,50,30.10,10.0,WSW,3.5,-,N/A,,Clear,240,2012-11-17 05:57:00
11:57 PM,39.0,19.0,45,30.09,10.0,West,3.5,-,N/A,,Clear,260,2012-11-17 06:57:00